| time (UTC) | temp F | wind direction | speed MPH | gust MPH | rain 1hr in | rain 24hr in | rain mn in | humidity % | barometer mb |
| 20260831085003 | 58 | 194 | 4.0 | 8.0 | 0.00 | 0.13 | 0.00 | 93 | 1007.5 |
| 20260831084504 | 58 | 191 | 4.0 | 8.0 | 0.00 | 0.13 | 0.00 | 93 | 1007.5 |
| 20260831084003 | 58 | 184 | 4.0 | 7.0 | 0.00 | 0.13 | 0.00 | 94 | 1007.6 |
| 20260831083503 | 58 | 195 | 3.0 | 7.0 | 0.00 | 0.13 | 0.00 | 95 | 1007.5 |
| 20260831083003 | 57 | 209 | 3.0 | 6.0 | 0.00 | 0.14 | 0.00 | 95 | 1007.5 |
| 20260831082714 | 58 | 194 | 3.0 | 6.0 | 0.00 | 0.14 | 0.00 | 96 | 1007.6 |
| 20260831082003 | 58 | 175 | 3.0 | 5.0 | 0.00 | 0.14 | 0.00 | 96 | 1007.4 |
| 20260831081504 | 57 | 179 | 3.0 | 6.0 | 0.00 | 0.14 | 0.00 | 96 | 1007.4 |
| 20260831081003 | 57 | 188 | 3.0 | 6.0 | 0.00 | 0.14 | 0.00 | 95 | 1007.5 |
| 20260831080714 | 57 | 187 | 3.0 | 6.0 | 0.00 | 0.14 | 0.00 | 95 | 1007.4 |
| 20260831080004 | 57 | 189 | 3.0 | 6.0 | 0.00 | 0.14 | 0.00 | 95 | 1007.6 |
| 20260831075714 | 57 | 192 | 3.0 | 8.0 | 0.00 | 0.14 | 0.00 | 95 | 1007.6 |
| 20260831075213 | 58 | 189 | 3.0 | 8.0 | 0.00 | 0.14 | 0.00 | 95 | 1007.6 |
| 20260831074714 | 58 | 182 | 4.0 | 8.0 | 0.00 | 0.14 | 0.00 | 94 | 1007.8 |
| 20260831074003 | 58 | 189 | 3.0 | 8.0 | 0.00 | 0.14 | 0.00 | 94 | 1007.7 |
| 20260831073503 | 58 | 205 | 3.0 | 6.0 | 0.00 | 0.14 | 0.00 | 95 | 1007.6 |
| 20260831073003 | 57 | 192 | 3.0 | 8.0 | 0.00 | 0.14 | 0.00 | 95 | 1007.9 |
| 20260831072503 | 57 | 182 | 4.0 | 8.0 | 0.00 | 0.14 | 0.00 | 95 | 1007.7 |
| 20260831072215 | 57 | 188 | 4.0 | 8.0 | 0.00 | 0.14 | 0.00 | 95 | 1007.7 |
| 20260831071503 | 57 | 199 | 3.0 | 7.0 | 0.00 | 0.14 | 0.00 | 95 | 1007.7 |
| 20260831071213 | 57 | 193 | 3.0 | 7.0 | 0.00 | 0.14 | 0.00 | 95 | 1007.7 |
| 20260831070503 | 57 | 179 | 3.0 | 8.0 | 0.00 | 0.14 | 0.00 | 95 | 1007.6 |
| 20260831070003 | 57 | 180 | 3.0 | 8.0 | 0.00 | 0.14 | 0.00 | 95 | 1007.7 |
| 20260831065713 | 57 | 180 | 3.0 | 9.0 | 0.00 | 0.14 | 0.00 | 95 | 1007.7 |
| 20260831065004 | 56 | 184 | 4.0 | 10.0 | 0.00 | 0.14 | 0.00 | 96 | 1007.9 |
| 20260831064503 | 56 | 190 | 5.0 | 10.0 | 0.00 | 0.14 | 0.00 | 95 | 1007.7 |
| 20260831064212 | 56 | 186 | 4.0 | 9.0 | 0.00 | 0.14 | 0.00 | 96 | 1007.8 |
| 20260831063503 | 56 | 196 | 3.0 | 9.0 | 0.00 | 0.14 | 0.00 | 96 | 1007.8 |
| 20260831063004 | 56 | 199 | 3.0 | 8.0 | 0.00 | 0.14 | 0.00 | 96 | 1007.7 |
| 20260831062503 | 56 | 193 | 3.0 | 8.0 | 0.00 | 0.14 | 0.00 | 97 | 1007.7 |
| 20260831062003 | 56 | 187 | 3.0 | 7.0 | 0.00 | 0.14 | 0.00 | 97 | 1007.7 |
| 20260831061504 | 55 | 190 | 3.0 | 7.0 | 0.00 | 0.14 | 0.00 | 97 | 1007.6 |
| 20260831061003 | 55 | 196 | 3.0 | 6.0 | 0.00 | 0.14 | 0.00 | 97 | 1007.7 |
| 20260831060504 | 55 | 186 | 3.0 | 7.0 | 0.00 | 0.14 | 0.00 | 97 | 1007.5 |
| 20260831060214 | 55 | 178 | 3.0 | 7.0 | 0.00 | 0.14 | 0.00 | 98 | 1007.6 |
| 20260831055713 | 55 | 176 | 4.0 | 8.0 | 0.00 | 0.14 | 0.00 | 98 | 1007.4 |
| 20260831055214 | 55 | 180 | 3.0 | 8.0 | 0.00 | 0.14 | 0.00 | 98 | 1007.6 |
| 20260831054503 | 55 | 178 | 3.0 | 6.0 | 0.00 | 0.14 | 0.00 | 98 | 1007.3 |
| 20260831054214 | 55 | 179 | 3.0 | 6.0 | 0.00 | 0.14 | 0.00 | 98 | 1007.5 |
| 20260831053503 | 55 | 181 | 3.0 | 6.0 | 0.00 | 0.14 | 0.00 | 98 | 1007.4 |
| 20260831053003 | 54 | 185 | 3.0 | 6.0 | 0.00 | 0.14 | 0.00 | 98 | 1007.4 |
| 20260831052713 | 54 | 190 | 3.0 | 6.0 | 0.00 | 0.14 | 0.00 | 98 | 1007.5 |
| 20260831052214 | 54 | 192 | 3.0 | 6.0 | 0.00 | 0.14 | 0.00 | 98 | 1007.1 |
| 20260831051504 | 54 | 193 | 3.0 | 6.0 | 0.00 | 0.14 | 0.00 | 98 | 1007.3 |
| 20260831051003 | 54 | 189 | 3.0 | 7.0 | 0.00 | 0.14 | 0.00 | 97 | 1007.3 |
| 20260831050503 | 54 | 191 | 3.0 | 7.0 | 0.00 | 0.14 | 0.00 | 98 | 1007.3 |
| 20260831050214 | 54 | 189 | 3.0 | 7.0 | 0.00 | 0.14 | 0.00 | 97 | 1007.2 |
| 20260831045713 | 54 | 182 | 3.0 | 7.0 | 0.00 | 0.14 | 0.00 | 97 | 1007.3 |
| 20260831045003 | 54 | 203 | 2.0 | 6.0 | 0.00 | 0.14 | 0.00 | 97 | 1007.2 |
| 20260831044503 | 54 | 211 | 2.0 | 6.0 | 0.00 | 0.14 | 0.00 | 97 | 1007.3 |
| 20260831044214 | 54 | 201 | 2.0 | 5.0 | 0.00 | 0.14 | 0.00 | 97 | 1007.2 |
| 20260831043503 | 55 | 199 | 2.0 | 5.0 | 0.00 | 0.14 | 0.00 | 97 | 1007.3 |
| 20260831043003 | 55 | 197 | 3.0 | 5.0 | 0.00 | 0.14 | 0.00 | 96 | 1007.1 |
| 20260831042503 | 55 | 208 | 3.0 | 7.0 | 0.00 | 0.14 | 0.00 | 96 | 1007.1 |
| 20260831042003 | 55 | 200 | 3.0 | 7.0 | 0.00 | 0.14 | 0.00 | 96 | 1007.2 |
| 20260831041713 | 55 | 203 | 3.0 | 7.0 | 0.00 | 0.14 | 0.00 | 96 | 1007.2 |
| 20260831041003 | 55 | 193 | 3.0 | 6.0 | 0.00 | 0.14 | 0.00 | 96 | 1007.0 |
| 20260831040503 | 55 | 194 | 3.0 | 9.0 | 0.00 | 0.14 | 0.00 | 97 | 1007.2 |
| 20260831040213 | 55 | 196 | 3.0 | 9.0 | 0.00 | 0.14 | 0.00 | 97 | 1007.0 |
| 20260831035503 | 55 | 199 | 3.0 | 9.0 | 0.00 | 0.14 | 0.00 | 97 | 1007.0 |
| 20260831035213 | 55 | 203 | 2.0 | 6.0 | 0.00 | 0.14 | 0.00 | 98 | 1007.1 |
| 20260831034503 | 55 | 201 | 3.0 | 7.0 | 0.00 | 0.14 | 0.00 | 98 | 1007.1 |
| 20260831034003 | 55 | 189 | 3.0 | 7.0 | 0.00 | 0.14 | 0.00 | 98 | 1007.1 |
| 20260831033503 | 55 | 179 | 3.0 | 7.0 | 0.00 | 0.14 | 0.00 | 98 | 1007.0 |
| 20260831033003 | 55 | 182 | 3.0 | 7.0 | 0.00 | 0.14 | 0.00 | 98 | 1007.1 |
| 20260831032503 | 55 | 191 | 3.0 | 8.0 | 0.00 | 0.14 | 0.00 | 98 | 1007.1 |
| 20260831032003 | 55 | 195 | 4.0 | 8.0 | 0.00 | 0.14 | 0.00 | 98 | 1006.9 |
| 20260831031503 | 55 | 202 | 3.0 | 7.0 | 0.00 | 0.14 | 0.00 | 98 | 1007.0 |
| 20260831031213 | 55 | 200 | 3.0 | 6.0 | 0.00 | 0.14 | 0.00 | 98 | 1007.1 |
| 20260831030714 | 55 | 191 | 3.0 | 6.0 | 0.00 | 0.14 | 0.00 | 98 | 1007.0 |
| 20260831030213 | 55 | 183 | 3.0 | 6.0 | 0.00 | 0.14 | 0.00 | 98 | 1006.9 |
| 20260831025503 | 55 | 188 | 2.0 | 5.0 | 0.00 | 0.14 | 0.00 | 98 | 1007.0 |
| 20260831025213 | 55 | 190 | 2.0 | 5.0 | 0.00 | 0.14 | 0.00 | 98 | 1007.0 |
| 20260831024503 | 55 | 191 | 3.0 | 6.0 | 0.00 | 0.14 | 0.00 | 98 | 1007.0 |
| 20260831024003 | 55 | 183 | 3.0 | 6.0 | 0.00 | 0.14 | 0.00 | 98 | 1006.9 |
| 20260831023714 | 55 | 186 | 3.0 | 7.0 | 0.00 | 0.14 | 0.00 | 98 | 1007.0 |
| 20260831023004 | 55 | 183 | 3.0 | 7.0 | 0.00 | 0.14 | 0.00 | 98 | 1007.0 |
| 20260831022503 | 55 | 192 | 3.0 | 5.0 | 0.00 | 0.14 | 0.00 | 98 | 1006.8 |
| 20260831022213 | 55 | 195 | 2.0 | 5.0 | 0.00 | 0.14 | 0.00 | 98 | 1007.0 |
| 20260831021503 | 55 | 199 | 2.0 | 6.0 | 0.00 | 0.14 | 0.00 | 98 | 1007.0 |
| 20260831021003 | 56 | 207 | 2.0 | 6.0 | 0.00 | 0.14 | 0.00 | 98 | 1006.9 |
| 20260831020503 | 56 | 208 | 2.0 | 6.0 | 0.00 | 0.14 | 0.00 | 98 | 1007.1 |
| 20260831020213 | 56 | 220 | 2.0 | 4.0 | 0.00 | 0.14 | 0.00 | 98 | 1007.0 |
| 20260831015503 | 55 | 206 | 2.0 | 6.0 | 0.00 | 0.14 | 0.00 | 98 | 1007.0 |
| 20260831015003 | 56 | 199 | 3.0 | 6.0 | 0.00 | 0.14 | 0.00 | 98 | 1007.1 |
| 20260831014504 | 56 | 198 | 3.0 | 6.0 | 0.00 | 0.14 | 0.00 | 98 | 1006.8 |
| 20260831014003 | 56 | 202 | 3.0 | 8.0 | 0.00 | 0.14 | 0.00 | 98 | 1007.0 |
| 20260831013713 | 56 | 202 | 3.0 | 8.0 | 0.00 | 0.14 | 0.00 | 98 | 1007.0 |
| 20260831013003 | 56 | 203 | 3.0 | 8.0 | 0.00 | 0.14 | 0.00 | 98 | 1006.9 |
| 20260831012503 | 56 | 191 | 2.0 | 7.0 | 0.00 | 0.14 | 0.00 | 98 | 1007.0 |
| 20260831012003 | 56 | 187 | 3.0 | 8.0 | 0.00 | 0.14 | 0.00 | 98 | 1006.9 |
| 20260831011503 | 56 | 195 | 3.0 | 8.0 | 0.00 | 0.14 | 0.00 | 98 | 1006.8 |
| 20260831011003 | 56 | 198 | 3.0 | 8.0 | 0.00 | 0.14 | 0.00 | 98 | 1006.8 |
| 20260831010504 | 56 | 206 | 2.0 | 9.0 | 0.00 | 0.14 | 0.00 | 98 | 1007.0 |
| 20260831010004 | 56 | 205 | 2.0 | 9.0 | 0.00 | 0.14 | 0.00 | 98 | 1007.0 |
| 20260831005503 | 56 | 200 | 2.0 | 10.0 | 0.00 | 0.14 | 0.00 | 98 | 1006.8 |
| 20260831005003 | 56 | 205 | 3.0 | 10.0 | 0.00 | 0.14 | 0.00 | 98 | 1006.9 |
| 20260831004504 | 56 | 196 | 3.0 | 10.0 | 0.00 | 0.14 | 0.00 | 98 | 1006.9 |
| 20260831004003 | 56 | 198 | 2.0 | 6.0 | 0.00 | 0.14 | 0.00 | 98 | 1006.9 |
| 20260831003503 | 56 | 210 | 2.0 | 5.0 | 0.00 | 0.14 | 0.00 | 98 | 1006.9 |
| 20260831003003 | 56 | 208 | 3.0 | 5.0 | 0.00 | 0.14 | 0.00 | 98 | 1006.9 |
| 20260831002713 | 56 | 209 | 2.0 | 5.0 | 0.00 | 0.14 | 0.00 | 98 | 1006.8 |
| 20260831002003 | 56 | 190 | 3.0 | 6.0 | 0.00 | 0.14 | 0.00 | 98 | 1006.9 |
| 20260831001503 | 56 | 190 | 3.0 | 7.0 | 0.00 | 0.14 | 0.00 | 98 | 1006.8 |
| 20260831001003 | 56 | 207 | 2.0 | 7.0 | 0.00 | 0.14 | 0.00 | 98 | 1007.1 |
| 20260831000504 | 56 | 215 | 2.0 | 6.0 | 0.00 | 0.14 | 0.00 | 98 | 1006.8 |
| 20260831000214 | 56 | 206 | 2.0 | 6.0 | 0.00 | 0.14 | 0.00 | 98 | 1006.9 |
| 20260830235503 | 56 | 213 | 2.0 | 5.0 | 0.00 | 0.14 | 0.00 | 99 | 1006.9 |
| 20260830235214 | 56 | 216 | 2.0 | 5.0 | 0.00 | 0.14 | 0.00 | 99 | 1006.9 |
| 20260830234504 | 56 | 222 | 2.0 | 5.0 | 0.00 | 0.14 | 0.00 | 98 | 1006.8 |
| 20260830234214 | 56 | 214 | 2.0 | 5.0 | 0.00 | 0.14 | 0.00 | 98 | 1006.7 |
| 20260830233713 | 56 | 213 | 2.0 | 4.0 | 0.00 | 0.14 | 0.00 | 98 | 1006.8 |
| 20260830233214 | 56 | 211 | 2.0 | 5.0 | 0.00 | 0.14 | 0.00 | 98 | 1006.9 |
| 20260830232503 | 56 | 213 | 3.0 | 8.0 | 0.00 | 0.14 | 0.00 | 98 | 1006.7 |
| 20260830232214 | 56 | 217 | 2.0 | 8.0 | 0.00 | 0.14 | 0.00 | 98 | 1006.6 |
| 20260830231713 | 56 | 223 | 2.0 | 8.0 | 0.00 | 0.14 | 0.00 | 99 | 1006.8 |
| 20260830231003 | 56 | 228 | 2.0 | 6.0 | 0.00 | 0.14 | 0.00 | 99 | 1006.7 |
| 20260830230503 | 56 | 221 | 2.0 | 6.0 | 0.00 | 0.14 | 0.00 | 99 | 1006.9 |
| 20260830230004 | 56 | 216 | 2.0 | 7.0 | 0.00 | 0.14 | 0.00 | 99 | 1006.7 |
| 20260830225503 | 56 | 261 | 1.0 | 7.0 | 0.00 | 0.14 | 0.00 | 99 | 1006.6 |
| 20260830225003 | 56 | 248 | 2.0 | 7.0 | 0.00 | 0.14 | 0.00 | 99 | 1006.7 |
| 20260830224503 | 56 | 233 | 2.0 | 4.0 | 0.00 | 0.14 | 0.00 | 99 | 1006.7 |
| 20260830224003 | 56 | 242 | 2.0 | 4.0 | 0.00 | 0.14 | 0.00 | 99 | 1006.5 |
| 20260830223503 | 57 | 230 | 2.0 | 4.0 | 0.00 | 0.14 | 0.00 | 99 | 1006.6 |
| 20260830223213 | 57 | 229 | 2.0 | 4.0 | 0.00 | 0.14 | 0.00 | 99 | 1006.6 |
| 20260830222503 | 57 | 223 | 2.0 | 5.0 | 0.00 | 0.14 | 0.00 | 99 | 1006.5 |
| 20260830222213 | 57 | 224 | 2.0 | 5.0 | 0.00 | 0.14 | 0.00 | 99 | 1006.5 |
| 20260830221503 | 57 | 230 | 2.0 | 5.0 | 0.00 | 0.14 | 0.00 | 99 | 1006.5 |
| 20260830221003 | 57 | 218 | 3.0 | 6.0 | 0.00 | 0.14 | 0.00 | 99 | 1006.4 |
| 20260830220503 | 57 | 222 | 4.0 | 7.0 | 0.00 | 0.14 | 0.00 | 99 | 1006.4 |
| 20260830220004 | 57 | 227 | 4.0 | 7.0 | 0.00 | 0.14 | 0.00 | 99 | 1006.3 |
| 20260830215714 | 57 | 234 | 3.0 | 7.0 | 0.00 | 0.14 | 0.14 | 99 | 1006.4 |
| 20260830215213 | 57 | 227 | 3.0 | 6.0 | 0.00 | 0.14 | 0.14 | 99 | 1006.4 |
| 20260830214504 | 57 | 227 | 3.0 | 7.0 | 0.00 | 0.14 | 0.14 | 99 | 1006.3 |
| 20260830214213 | 57 | 228 | 3.0 | 7.0 | 0.00 | 0.14 | 0.14 | 99 | 1006.2 |
| 20260830213503 | 58 | 230 | 3.0 | 6.0 | 0.00 | 0.14 | 0.14 | 99 | 1006.2 |
| 20260830213004 | 58 | 215 | 3.0 | 6.0 | 0.00 | 0.14 | 0.14 | 99 | 1006.1 |
| 20260830212503 | 58 | 218 | 2.0 | 5.0 | 0.00 | 0.14 | 0.14 | 99 | 1006.2 |
| 20260830212003 | 58 | 226 | 1.0 | 4.0 | 0.00 | 0.14 | 0.14 | 99 | 1006.0 |
| 20260830211503 | 58 | 227 | 1.0 | 5.0 | 0.00 | 0.14 | 0.14 | 99 | 1005.9 |
| 20260830211003 | 58 | 230 | 1.0 | 5.0 | 0.00 | 0.14 | 0.14 | 99 | 1005.9 |
| 20260830210503 | 58 | 236 | 1.0 | 5.0 | 0.00 | 0.14 | 0.14 | 99 | 1005.9 |
| 20260830210003 | 58 | 219 | 2.0 | 5.0 | 0.00 | 0.14 | 0.14 | 99 | 1005.8 |
| 20260830205503 | 57 | 219 | 2.0 | 5.0 | 0.00 | 0.14 | 0.14 | 99 | 1005.7 |
| 20260830205003 | 57 | 241 | 1.0 | 6.0 | 0.00 | 0.14 | 0.14 | 99 | 1005.6 |
| 20260830204504 | 57 | 240 | 1.0 | 6.0 | 0.00 | 0.14 | 0.14 | 99 | 1005.7 |
| 20260830204003 | 57 | 224 | 2.0 | 5.0 | 0.00 | 0.14 | 0.14 | 99 | 1005.6 |
| 20260830203503 | 58 | 208 | 3.0 | 5.0 | 0.00 | 0.14 | 0.14 | 99 | 1005.7 |
| 20260830203003 | 58 | 222 | 2.0 | 6.0 | 0.00 | 0.14 | 0.14 | 99 | 1005.7 |
| 20260830202503 | 58 | 224 | 2.0 | 6.0 | 0.00 | 0.14 | 0.14 | 99 | 1005.4 |
| 20260830202003 | 57 | 222 | 2.0 | 4.0 | 0.00 | 0.14 | 0.14 | 99 | 1005.3 |
| 20260830201503 | 58 | 239 | 1.0 | 4.0 | 0.00 | 0.14 | 0.14 | 99 | 1005.3 |
| 20260830201003 | 57 | 236 | 1.0 | 6.0 | 0.00 | 0.14 | 0.14 | 99 | 1005.3 |
| 20260830200503 | 57 | 242 | 1.0 | 6.0 | 0.00 | 0.14 | 0.14 | 99 | 1005.3 |
| 20260830200003 | 57 | 246 | 1.0 | 3.0 | 0.00 | 0.14 | 0.14 | 99 | 1005.1 |
| 20260830195713 | 57 | 266 | 1.0 | 3.0 | 0.00 | 0.14 | 0.14 | 99 | 1004.9 |
| 20260830195003 | 57 | 237 | 1.0 | 5.0 | 0.00 | 0.14 | 0.14 | 99 | 1005.0 |
| 20260830194503 | 57 | 237 | 2.0 | 6.0 | 0.00 | 0.14 | 0.14 | 99 | 1004.9 |
| 20260830194214 | 57 | 242 | 2.0 | 6.0 | 0.00 | 0.14 | 0.14 | 99 | 1005.0 |
| 20260830193713 | 57 | 224 | 2.0 | 6.0 | 0.00 | 0.14 | 0.14 | 99 | 1004.9 |
| 20260830193214 | 58 | 208 | 2.0 | 6.0 | 0.00 | 0.14 | 0.14 | 99 | 1004.8 |
| 20260830192504 | 58 | 227 | 2.0 | 6.0 | 0.00 | 0.14 | 0.14 | 99 | 1004.9 |
| 20260830192003 | 58 | 239 | 2.0 | 6.0 | 0.00 | 0.14 | 0.14 | 98 | 1004.7 |
| 20260830191503 | 58 | 235 | 3.0 | 6.0 | 0.00 | 0.14 | 0.14 | 98 | 1004.5 |
| 20260830191003 | 58 | 226 | 2.0 | 6.0 | 0.00 | 0.14 | 0.14 | 98 | 1004.5 |
| 20260830190503 | 59 | 289 | 2.0 | 8.0 | 0.00 | 0.14 | 0.14 | 98 | 1004.2 |
| 20260830190214 | 59 | 306 | 2.0 | 8.0 | 0.00 | 0.14 | 0.14 | 98 | 1004.2 |
| 20260830185503 | 59 | 275 | 2.0 | 8.0 | 0.00 | 0.14 | 0.14 | 98 | 1004.0 |
| 20260830185003 | 60 | 234 | 1.0 | 7.0 | 0.00 | 0.14 | 0.14 | 99 | 1004.0 |
| 20260830184713 | 61 | 251 | 1.0 | 7.0 | 0.00 | 0.14 | 0.14 | 99 | 1004.0 |
| 20260830184003 | 61 | 254 | 1.0 | 3.0 | 0.00 | 0.14 | 0.14 | 99 | 1003.6 |
| 20260830183504 | 61 | 247 | 1.0 | 3.0 | 0.00 | 0.14 | 0.14 | 99 | 1003.7 |
| 20260830183003 | 61 | 241 | 1.0 | 3.0 | 0.00 | 0.14 | 0.14 | 99 | 1003.6 |
| 20260830182503 | 61 | 237 | 1.0 | 4.0 | 0.00 | 0.14 | 0.14 | 99 | 1003.4 |
| 20260830182003 | 61 | 234 | 1.0 | 4.0 | 0.00 | 0.14 | 0.14 | 99 | 1003.3 |
| 20260830181503 | 61 | 227 | 1.0 | 3.0 | 0.00 | 0.14 | 0.14 | 99 | 1003.2 |
| 20260830181003 | 61 | 225 | 1.0 | 2.0 | 0.00 | 0.14 | 0.14 | 99 | 1003.1 |
| 20260830180503 | 61 | 229 | 1.0 | 3.0 | 0.00 | 0.14 | 0.14 | 99 | 1002.8 |
| 20260830180003 | 61 | 237 | 1.0 | 3.0 | 0.00 | 0.14 | 0.14 | 99 | 1003.0 |
| 20260830175503 | 61 | 254 | 1.0 | 4.0 | 0.00 | 0.14 | 0.14 | 99 | 1003.0 |
| 20260830175003 | 61 | 241 | 1.0 | 4.0 | 0.02 | 0.14 | 0.14 | 99 | 1002.8 |
| 20260830174503 | 61 | 229 | 1.0 | 4.0 | 0.02 | 0.14 | 0.14 | 99 | 1002.9 |
| 20260830174213 | 61 | 229 | 1.0 | 3.0 | 0.02 | 0.14 | 0.14 | 99 | 1002.7 |
| 20260830173712 | 62 | 228 | 1.0 | 3.0 | 0.02 | 0.14 | 0.14 | 99 | 1002.6 |
| 20260830173003 | 62 | 228 | 1.0 | 2.0 | 0.02 | 0.14 | 0.14 | 99 | 1002.5 |
| 20260830172712 | 62 | 232 | 1.0 | 2.0 | 0.02 | 0.14 | 0.14 | 99 | 1002.6 |
| 20260830172003 | 62 | 220 | 0.0 | 2.0 | 0.02 | 0.14 | 0.14 | 99 | 1002.7 |
| 20260830171503 | 62 | 218 | 0.0 | 1.0 | 0.01 | 0.13 | 0.13 | 99 | 1002.7 |
| 20260830171003 | 62 | 228 | 0.0 | 1.0 | 0.01 | 0.13 | 0.13 | 99 | 1002.5 |
| 20260830170503 | 62 | 231 | 0.0 | 2.0 | 0.01 | 0.13 | 0.13 | 98 | 1002.4 |
| 20260830170213 | 62 | 230 | 0.0 | 2.0 | 0.01 | 0.13 | 0.13 | 98 | 1002.3 |
| 20260830165503 | 62 | 216 | 1.0 | 3.0 | 0.01 | 0.13 | 0.13 | 99 | 1002.5 |
| 20260830165003 | 62 | 192 | 1.0 | 4.0 | 0.00 | 0.12 | 0.12 | 98 | 1002.3 |
| 20260830164714 | 62 | 192 | 2.0 | 4.0 | 0.00 | 0.12 | 0.12 | 99 | 1002.4 |
| 20260830164003 | 62 | 196 | 2.0 | 4.0 | 0.00 | 0.12 | 0.12 | 99 | 1002.3 |
| 20260830163503 | 62 | 187 | 2.0 | 4.0 | 0.00 | 0.12 | 0.12 | 98 | 1002.3 |
| 20260830163213 | 61 | 181 | 2.0 | 5.0 | 0.00 | 0.12 | 0.12 | 98 | 1002.3 |
| 20260830162504 | 61 | 175 | 2.0 | 5.0 | 0.00 | 0.12 | 0.12 | 98 | 1002.3 |
| 20260830162003 | 62 | 193 | 2.0 | 4.0 | 0.01 | 0.12 | 0.12 | 98 | 1002.4 |
| 20260830161714 | 62 | 190 | 2.0 | 4.0 | 0.01 | 0.12 | 0.12 | 98 | 1002.5 |
| 20260830161004 | 62 | 181 | 2.0 | 6.0 | 0.01 | 0.12 | 0.12 | 98 | 1002.4 |
| 20260830160503 | 62 | 192 | 2.0 | 6.0 | 0.01 | 0.12 | 0.12 | 98 | 1002.4 |
| 20260830160004 | 62 | 187 | 4.0 | 6.0 | 0.01 | 0.12 | 0.12 | 98 | 1002.4 |
| 20260830155503 | 62 | 182 | 3.0 | 6.0 | 0.01 | 0.12 | 0.12 | 98 | 1002.5 |
| 20260830155003 | 62 | 179 | 3.0 | 6.0 | 0.01 | 0.12 | 0.12 | 98 | 1002.3 |
| 20260830154503 | 62 | 186 | 3.0 | 6.0 | 0.01 | 0.12 | 0.12 | 98 | 1002.5 |
| 20260830154003 | 62 | 188 | 2.0 | 5.0 | 0.01 | 0.12 | 0.12 | 99 | 1002.5 |
| 20260830153503 | 62 | 168 | 2.0 | 5.0 | 0.09 | 0.12 | 0.12 | 99 | 1002.4 |
| 20260830153213 | 62 | 163 | 2.0 | 5.0 | 0.10 | 0.12 | 0.12 | 98 | 1002.6 |
| 20260830152714 | 62 | 165 | 2.0 | 6.0 | 0.10 | 0.12 | 0.12 | 98 | 1002.6 |
| 20260830152003 | 62 | 182 | 3.0 | 6.0 | 0.09 | 0.11 | 0.11 | 98 | 1002.4 |
| 20260830151503 | 62 | 185 | 3.0 | 5.0 | 0.09 | 0.11 | 0.11 | 98 | 1002.6 |
| 20260830151215 | 62 | 179 | 3.0 | 6.0 | 0.09 | 0.11 | 0.11 | 98 | 1002.5 |
| 20260830150503 | 62 | 179 | 3.0 | 6.0 | 0.09 | 0.11 | 0.11 | 98 | 1002.7 |
| 20260830150212 | 62 | 183 | 3.0 | 5.0 | 0.09 | 0.11 | 0.11 | 98 | 1002.7 |
| 20260830145503 | 62 | 198 | 3.0 | 5.0 | 0.09 | 0.11 | 0.11 | 98 | 1002.6 |
| 20260830145003 | 62 | 180 | 3.0 | 7.0 | 0.09 | 0.11 | 0.11 | 98 | 1002.7 |
| 20260830144713 | 62 | 152 | 4.0 | 9.0 | 0.09 | 0.11 | 0.11 | 98 | 1002.5 |
| 20260830144212 | 62 | 117 | 4.0 | 9.0 | 0.09 | 0.11 | 0.11 | 97 | 1002.6 |
| 20260830143503 | 62 | 163 | 3.0 | 6.0 | 0.01 | 0.03 | 0.03 | 96 | 1002.6 |
| 20260830143003 | 63 | 170 | 3.0 | 6.0 | 0.01 | 0.04 | 0.02 | 96 | 1002.4 |
| 20260830142503 | 63 | 164 | 3.0 | 9.0 | 0.01 | 0.05 | 0.02 | 96 | 1002.6 |
| 20260830142003 | 62 | 160 | 3.0 | 9.0 | 0.01 | 0.05 | 0.02 | 96 | 1002.6 |
| 20260830141504 | 62 | 152 | 2.0 | 7.0 | 0.01 | 0.07 | 0.02 | 97 | 1002.6 |
| 20260830141003 | 62 | 139 | 2.0 | 4.0 | 0.01 | 0.08 | 0.02 | 98 | 1002.8 |
| 20260830140713 | 61 | 137 | 2.0 | 4.0 | 0.01 | 0.08 | 0.02 | 98 | 1002.6 |
| 20260830140214 | 61 | 169 | 2.0 | 4.0 | 0.01 | 0.08 | 0.02 | 98 | 1002.5 |
| 20260830135503 | 61 | 191 | 2.0 | 4.0 | 0.01 | 0.09 | 0.02 | 97 | 1002.6 |
| 20260830135003 | 62 | 207 | 2.0 | 6.0 | 0.01 | 0.10 | 0.02 | 97 | 1002.9 |
| 20260830134503 | 62 | 184 | 2.0 | 6.0 | 0.01 | 0.09 | 0.02 | 97 | 1002.9 |
| 20260830134003 | 62 | 152 | 2.0 | 6.0 | 0.00 | 0.09 | 0.02 | 97 | 1002.8 |
| 20260830133503 | 62 | 149 | 1.0 | 3.0 | 0.00 | 0.09 | 0.02 | 97 | 1002.8 |
| 20260830133214 | 62 | 137 | 1.0 | 3.0 | 0.00 | 0.09 | 0.02 | 97 | 1002.7 |
| 20260830132506 | 62 | 140 | 1.0 | 4.0 | 0.00 | 0.09 | 0.01 | 97 | 1002.9 |
| 20260830132214 | 62 | 159 | 1.0 | 5.0 | 0.00 | 0.09 | 0.01 | 97 | 1002.8 |
| 20260830131713 | 61 | 140 | 2.0 | 5.0 | 0.00 | 0.09 | 0.01 | 97 | 1002.9 |
| 20260830131214 | 61 | 135 | 2.0 | 6.0 | 0.00 | 0.09 | 0.01 | 97 | 1003.0 |
| 20260830130503 | 62 | 158 | 3.0 | 7.0 | 0.00 | 0.09 | 0.01 | 97 | 1003.0 |
| 20260830130003 | 61 | 170 | 3.0 | 7.0 | 0.00 | 0.09 | 0.01 | 98 | 1002.8 |
| 20260830125503 | 61 | 156 | 3.0 | 7.0 | 0.00 | 0.09 | 0.01 | 98 | 1003.0 |
| 20260830125214 | 61 | 160 | 3.0 | 7.0 | 0.00 | 0.09 | 0.01 | 98 | 1002.9 |
| 20260830124713 | 61 | 153 | 2.0 | 9.0 | 0.00 | 0.09 | 0.01 | 97 | 1002.9 |
| 20260830124214 | 61 | 167 | 3.0 | 9.0 | 0.00 | 0.09 | 0.01 | 97 | 1002.9 |
| 20260830123713 | 61 | 164 | 3.0 | 8.0 | 0.00 | 0.09 | 0.01 | 97 | 1002.8 |
| 20260830123003 | 61 | 120 | 3.0 | 8.0 | 0.00 | 0.09 | 0.01 | 97 | 1003.1 |
| 20260830122503 | 61 | 119 | 3.0 | 5.0 | 0.00 | 0.10 | 0.01 | 97 | 1003.1 |
| 20260830122003 | 61 | 165 | 2.0 | 5.0 | 0.00 | 0.10 | 0.01 | 98 | 1003.1 |
| 20260830121712 | 61 | 161 | 3.0 | 6.0 | 0.00 | 0.10 | 0.01 | 98 | 1003.0 |
| 20260830121003 | 61 | 122 | 3.0 | 6.0 | 0.00 | 0.10 | 0.01 | 98 | 1003.0 |
| 20260830120712 | 60 | 124 | 2.0 | 5.0 | 0.00 | 0.10 | 0.01 | 98 | 1003.2 |
| 20260830120213 | 60 | 145 | 2.0 | 5.0 | 0.00 | 0.10 | 0.01 | 98 | 1003.2 |
| 20260830115503 | 60 | 126 | 2.0 | 6.0 | 0.00 | 0.10 | 0.01 | 98 | 1003.2 |
| 20260830115003 | 60 | 119 | 3.0 | 6.0 | 0.00 | 0.10 | 0.01 | 98 | 1003.2 |
| 20260830114714 | 60 | 109 | 3.0 | 6.0 | 0.00 | 0.10 | 0.01 | 98 | 1003.1 |
| 20260830114003 | 60 | 110 | 3.0 | 6.0 | 0.01 | 0.10 | 0.01 | 98 | 1003.1 |
| 20260830113714 | 60 | 111 | 3.0 | 7.0 | 0.01 | 0.10 | 0.01 | 98 | 1003.4 |
| 20260830113003 | 60 | 139 | 3.0 | 9.0 | 0.01 | 0.10 | 0.01 | 98 | 1003.3 |
| 20260830112503 | 60 | 144 | 3.0 | 9.0 | 0.01 | 0.10 | 0.01 | 98 | 1003.3 |
| 20260830112003 | 60 | 120 | 2.0 | 5.0 | 0.01 | 0.10 | 0.01 | 98 | 1003.5 |
| 20260830111714 | 60 | 124 | 2.0 | 5.0 | 0.01 | 0.10 | 0.01 | 98 | 1003.4 |
| 20260830111003 | 60 | 107 | 2.0 | 5.0 | 0.01 | 0.10 | 0.01 | 98 | 1003.7 |
| 20260830110503 | 59 | 127 | 2.0 | 5.0 | 0.01 | 0.10 | 0.01 | 98 | 1003.5 |
| 20260830110004 | 59 | 123 | 2.0 | 6.0 | 0.00 | 0.09 | 0.01 | 98 | 1003.8 |
| 20260830105714 | 59 | 101 | 2.0 | 6.0 | 0.00 | 0.09 | 0.01 | 97 | 1003.7 |
| 20260830105003 | 59 | 103 | 3.0 | 6.0 | 0.00 | 0.09 | 0.01 | 97 | 1003.7 |
| 20260830104714 | 59 | 114 | 3.0 | 7.0 | 0.00 | 0.09 | 0.01 | 97 | 1003.7 |
| 20260830104003 | 59 | 142 | 3.0 | 7.0 | 0.00 | 0.09 | 0.01 | 97 | 1003.8 |
| 20260830103503 | 59 | 137 | 3.0 | 7.0 | 0.00 | 0.09 | 0.01 | 97 | 1003.8 |
| 20260830103003 | 59 | 118 | 3.0 | 7.0 | 0.00 | 0.09 | 0.01 | 97 | 1003.7 |
| 20260830102503 | 59 | 109 | 2.0 | 7.0 | 0.00 | 0.09 | 0.01 | 97 | 1003.8 |
| 20260830102003 | 59 | 117 | 3.0 | 7.0 | 0.00 | 0.09 | 0.01 | 96 | 1003.8 |
| 20260830101503 | 59 | 118 | 4.0 | 7.0 | 0.00 | 0.09 | 0.01 | 96 | 1003.9 |
| 20260830101003 | 59 | 112 | 4.0 | 7.0 | 0.00 | 0.09 | 0.01 | 96 | 1003.9 |
| 20260830100503 | 59 | 113 | 4.0 | 8.0 | 0.00 | 0.09 | 0.01 | 96 | 1004.1 |
| 20260830100003 | 58 | 110 | 3.0 | 8.0 | 0.00 | 0.09 | 0.01 | 96 | 1004.1 |
| 20260830095503 | 58 | 96 | 2.0 | 5.0 | 0.00 | 0.09 | 0.01 | 96 | 1004.0 |
| 20260830095003 | 58 | 131 | 2.0 | 5.0 | 0.00 | 0.09 | 0.01 | 97 | 1004.2 |
| 20260830094503 | 58 | 110 | 2.0 | 8.0 | 0.00 | 0.09 | 0.01 | 97 | 1004.1 |
| 20260830094212 | 58 | 105 | 2.0 | 8.0 | 0.00 | 0.09 | 0.01 | 97 | 1004.3 |
| 20260830093503 | 58 | 128 | 2.0 | 6.0 | 0.00 | 0.09 | 0.01 | 98 | 1004.4 |
| 20260830093212 | 58 | 113 | 2.0 | 6.0 | 0.00 | 0.09 | 0.01 | 98 | 1004.4 |
| 20260830092504 | 58 | 88 | 2.0 | 5.0 | 0.00 | 0.09 | 0.01 | 98 | 1004.5 |
| 20260830092004 | 57 | 78 | 2.0 | 4.0 | 0.00 | 0.09 | 0.01 | 98 | 1004.3 |
| 20260830091503 | 57 | 78 | 2.0 | 4.0 | 0.00 | 0.09 | 0.01 | 98 | 1004.6 |
| 20260830091214 | 57 | 101 | 2.0 | 4.0 | 0.00 | 0.09 | 0.01 | 98 | 1004.6 |
| 20260830090713 | 57 | 101 | 2.0 | 4.0 | 0.00 | 0.09 | 0.01 | 98 | 1004.4 |
| 20260830090004 | 57 | 112 | 2.0 | 4.0 | 0.00 | 0.09 | 0.01 | 98 | 1004.5 |
| 20260830085713 | 57 | 113 | 2.0 | 4.0 | 0.01 | 0.09 | 0.01 | 98 | 1004.7 |